Location: Moscow
(38.8570°N, 84.2291°W)
Time: 20:20:31
(UTC+00:00)

EO-79 - Pass Details

Date: 23 March 2026
Orbit: 507 x 521 km, 98.1° (Epoch: 18 April)

Event Time Altitude Azimuth Distance (km) Brightness Sun altitude
Rises 10:56:52 0° 28° (NNE) 2,622 ? -8.3°
Reaches altitude 10° 10:59:22 10° 45° (NE) 1,729 ? -7.9°
Maximum altitude 11:02:13 21° 96° (E) 1,187 ? -7.3°
Drops below altitude 10° 11:05:04 10° 146° (SE) 1,716 ? -6.8°
Sets 11:07:31 0° 163° (SSE) 2,594 ? -6.3°
